Change the Weather History Date:

Monday, March 17, 2014

  Actual Average Record
Temperature  
Mean Temperature 41 °F -  
Max Temperature 52 °F - - ()
Min Temperature 30 °F - - ()
Degree Days  
Heating Degree Days 24    
Moisture  
Dew Point 33 °F    
Average Humidity 83    
Maximum Humidity 99    
Minimum Humidity 38    
Precipitation  
Precipitation 0.00 in - - ()
Sea Level Pressure  
Sea Level Pressure 30.11 in    
Wind  
Wind Speed - ()    
Max Wind Speed -    
Max Gust Speed -    
T = Trace of Precipitation, MM = Missing Value Source: Averaged Metar Reports

Daily Weather History Graph

Daily Weather History Graph

Search for Another Location

Airport or City:

Trip Planner

Search our weather history database for the weather conditions in past years. The results will help you decide how hot, cold, wet, or windy it might be!

Date:

Astronomy

Mar. 17, 2014 Rise Set
Actual Time 7:19 AM PDT 7:19 PM PDT
Civil Twilight 6:47 AM PDT 7:51 PM PDT
Nautical Twilight 6:09 AM PDT 8:29 PM PDT
Astronomical Twilight 5:30 AM PDT 9:09 PM PDT
Moon 8:53 PM PDT (3/17) 7:30 AM PDT (3/17)
Length of Visible Light 13h 04m
Length of Day
11h 59m
Full, 99% of the Moon is Illuminated
Mar 17
Full
Mar 23
Last Quarter
Mar 30
New
Apr 7
First Quarter
Apr 15
Full

Hourly Weather History & Observations

Time (PDT) Temp. Dew Point Humidity Pressure Visibility Wind Dir Wind Speed Gust Speed Precip Events Conditions
12:00 AM 37.2 °F 36.5 °F 97% 29.90 in - North - - N/A   Unknown
1:00 AM 36.7 °F 36.1 °F 98% 29.91 in - North - - N/A   Unknown
2:00 AM 35.6 °F 35.1 °F 98% 29.92 in - North - - 0.00 in   Unknown
3:00 AM 34.7 °F 34.2 °F 98% 29.94 in - North - - N/A   Unknown
4:00 AM 33.6 °F 33.1 °F 98% 29.96 in - North - - N/A   Unknown
5:00 AM 34 °F 34 °F 99% 29.99 in - Calm Calm - -  
5:00 AM 34.2 °F 33.8 °F 99% 29.99 in - North - - N/A   Unknown
6:00 AM 33.4 °F 32.9 °F 98% 30.02 in - North - - N/A   Unknown
7:00 AM 32.2 °F 31.8 °F 99% 30.05 in - North - - N/A   Unknown
8:00 AM 30.9 °F 30.6 °F 99% 30.08 in - North - - N/A   Unknown
9:00 AM 31.5 °F 31.3 °F 99% 30.11 in - North - - N/A   Unknown
10:00 AM 33.6 °F 33.1 °F 98% 30.14 in - North - - N/A   Unknown
11:00 AM 37 °F 35 °F 88% 30.15 in - Calm Calm - -  
11:00 AM 36.7 °F 34.7 °F 93% 30.15 in - North - - N/A   Unknown
12:00 PM 43.3 °F 34.0 °F 70% 30.15 in - North - - N/A   Unknown
1:00 PM 46.6 °F 33.4 °F 60% 30.15 in - North - - N/A   Unknown
2:00 PM 44.2 °F 34.5 °F 69% 30.16 in - North - - N/A   Unknown
3:00 PM 51.8 °F 28.2 °F 40% 30.14 in - North - - N/A   Unknown
4:00 PM 51.3 °F 30.4 °F 45% 30.15 in - North - - N/A   Unknown
5:00 PM 50 °F 32 °F 38% 30.17 in - Calm Calm - -  
5:00 PM 49.6 °F 32.0 °F 51% 30.17 in - North - - N/A   Unknown
6:00 PM 45.7 °F 33.3 °F 62% 30.19 in - North - - N/A   Unknown
7:00 PM 40.6 °F 31.6 °F 70% 30.21 in - North - - N/A   Unknown
8:00 PM 35.2 °F 32.7 °F 91% 30.23 in - North - - N/A   Unknown
9:00 PM 33.4 °F 32.4 °F 96% 30.26 in - North - - N/A   Unknown
10:00 PM 33.1 °F 31.8 °F 95% 30.28 in - North - - N/A   Unknown
11:00 PM 32.4 °F 31.5 °F 96% 30.29 in - North - - N/A   Unknown